Temp
13 13 13 13 13 12 12 12 12 12 12 12 12 12 12 12 11 11 11 11 11 11 11 11 11 11 10 10 10 10 10 10 10 10 10 10 10 10 10 10 10 10 9 9 9 9 9 9 9 9 9 8 8 8 8 8 8 8 8 8 8 8 8 7 7 7 7 7 7
13 13 13 13 12 12 12 12 12 12 12 12 12 11 11 11 11 11 11 11 11 11 10 10 10 10 10 10 10 10 10 10 10 10 10 10 10 10 10 10 10 9 9 9 9 9 9 9 9 9 9 8 8 8 8 8 8 8 8 8 8 8 7 7 7 7 7 7 7
13 13 13 13 12 12 12 12 12 12 12 11 11 11 11 11 11 11 11 10 10 10 10 10 10 10 10 10 10 10 10 10 10 10 10 10 10 9 9 9 9 9 9 9 9 9 9 9 9 9 8 8 8 8 8 8 8 8 8 7 7 7 7 7 7 7 7 7 7
13 13 13 12 12 12 12 12 12 12 12 11 11 11 11 11 10 10 10 10 10 10 10 10 10 10 10 10 10 10 10 10 10 9 9 9 9 9 9 9 9 9 9 9 9 9 9 9 9 8 8 8 8 8 8 8 8 8 7 7 7 7 7 7 7 7 7 7 7
13 12 12 12 12 12 12 12 12 12 12 11 11 11 11 11 10 10 10 10 10 10 10 10 10 9 9 9 9 9 9 9 9 9 9 9 9 9 9 9 9 9 9 9 9 9 9 9 8 8 8 8 8 8 8 8 7 7 7 7 7 7 7 7 7 7 6 6 6
12 12 12 12 12 12 12 12 12 11 11 11 11 11 11 10 10 10 10 10 10 10 9 9 9 9 9 9 9 9 9 9 9 9 9 9 9 9 9 9 9 9 9 9 9 9 8 8 8 8 8 7 7 7 7 7 7 7 7 7 7 6 6 6 6 6 6 6 6
12 12 12 12 12 12 12 11 11 11 11 11 11 11 10 10 10 10 10 10 9 9 9 9 9 9 9 9 9 9 9 9 9 9 9 9 9 9 9 9 9 9 8 8 8 8 8 8 8 7 7 7 7 7 7 7 7 7 6 6 6 6 6 6 6 6 6 6 6
12 12 12 12 12 12 11 11 11 11 11 11 10 10 10 10 10 10 9 9 9 9 9 9 9 9 9 9 9 9 9 9 9 9 9 9 9 9 8 8 8 8 8 8 8 8 8 7 7 7 7 7 6 6 6 6 6 6 6 6 6 6 6 5 5 5 5 5 5
12 12 12 12 11 11 11 11 11 11 10 10 10 10 10 10 10 9 9 9 9 9 9 9 9 9 9 9 9 9 9 9 9 9 9 8 8 8 8 8 8 8 8 8 7 7 7 7 7 7 6 6 6 6 6 6 6 6 6 6 5 5 5 5 5 5 5 5 5
12 11 11 11 11 11 11 10 10 10 10 10 10 10 10 9 9 9 9 9 9 9 9 9 9 9 9 9 9 9 8 8 8 8 8 8 8 8 8 7 7 7 7 7 7 7 7 6 6 6 6 6 6 6 6 6 6 6 5 5 5 5 5 5 5 5 5 4 4
11 11 11 11 11 10 10 10 10 10 10 10 10 10 9 9 9 9 9 9 9 9 9 9 9 8 8 8 8 8 8 8 8 8 7 7 7 7 7 7 7 7 7 7 6 6 6 6 6 6 6 6 6 5 5 5 5 5 5 5 5 5 4 4 4 4 4 4 4
11 11 11 10 10 10 10 10 10 10 10 10 10 9 9 9 9 9 9 9 9 9 9 8 8 8 8 8 8 8 7 7 7 7 7 7 7 7 7 6 6 6 6 6 6 6 6 5 5 5 5 5 5 5 5 5 5 5 4 4 4 4 4 4 4 4 4 4 4
11 11 10 10 10 10 10 10 10 10 10 10 9 9 9 9 9 9 9 8 8 8 8 8 8 8 8 7 7 7 7 7 7 7 7 6 6 6 6 6 6 6 6 6 6 5 5 5 5 5 5 5 5 5 5 5 4 4 4 4 4 4 4 4 4 4 4 4 3
10 10 10 10 10 10 10 10 10 10 9 9 9 9 9 9 9 8 8 8 8 8 8 8 7 7 7 7 7 7 7 7 6 6 6 6 6 6 6 6 5 5 5 5 5 5 5 5 5 5 5 5 4 4 4 4 4 4 4 4 3 3 3 3 3 3 3 3 3
10 10 10 10 10 9 9 9 9 9 9 9 9 9 9 8 8 8 8 8 8 7 7 7 7 7 7 7 7 6 6 6 6 6 6 6 5 5 5 5 5 5 5 5 5 5 5 5 5 4 4 4 4 4 4 4 4 4 3 3 3 3 3 3 3 3 3 3 3
10 10 10 9 9 9 9 9 9 9 9 9 8 8 8 8 8 8 8 7 7 7 7 7 7 7 6 6 6 6 6 6 6 5 5 5 5 5 5 5 5 5 5 5 4 4 4 4 4 4 4 4 4 4 4 4 4 3 3 3 3 3 3 3 3 3 3 3 2
10 9 9 9 9 9 9 9 9 9 8 8 8 8 8 8 8 7 7 7 7 7 7 6 6 6 6 6 6 6 5 5 5 5 5 5 5 5 5 4 4 4 4 4 4 4 4 4 4 4 4 4 4 3 3 3 3 3 3 3 3 3 3 3 3 3 3 2 2
9 9 9 9 9 9 9 9 8 8 8 8 8 8 8 7 7 7 7 7 7 6 6 6 6 6 6 5 5 5 5 5 5 5 5 5 4 4 4 4 4 4 4 4 4 4 4 4 4 4 3 3 3 3 3 3 3 3 3 3 3 3 3 3 3 3 3 2 2
9 9 9 9 9 8 8 8 8 8 8 8 8 8 7 7 7 7 7 7 6 6 6 6 6 5 5 5 5 5 5 5 5 5 4 4 4 4 4 4 4 4 4 4 4 4 3 3 3 3 3 3 3 3 3 3 3 3 3 3 3 3 3 3 3 3 3 3 3
9 9 9 8 8 8 8 8 8 8 8 8 7 7 7 7 7 7 6 6 6 6 6 5 5 5 5 5 5 5 5 4 4 4 4 4 4 4 4 4 4 3 3 3 3 3 3 3 3 3 3 3 3 3 3 3 3 3 3 3 3 3 3 3 3 3 3 3 3
9 8 8 8 8 8 8 8 8 8 7 7 7 7 7 7 7 6 6 6 6 6 5 5 5 5 5 5 5 5 4 4 4 4 4 4 4 4 3 3 3 3 3 3 3 3 3 3 3 3 3 3 3 3 3 3 3 3 3 3 3 3 3 3 3 3 3 3 3
8 8 8 8 8 8 8 8 7 7 7 7 7 7 7 7 6 6 6 6 5 5 5 5 5 5 5 5 4 4 4 4 4 4 4 4 3 3 3 3 3 3 3 3 3 3 3 3 3 3 3 3 3 3 3 3 3 3 3 3 2 3 3 3 3 3 3 3 2
8 8 8 8 8 8 7 7 7 7 7 7 7 7 6 6 6 6 6 5 5 5 5 5 5 5 4 4 4 4 4 4 4 4 3 3 3 3 3 3 3 3 3 3 3 2 2 2 2 2 2 2 3 3 3 3 3 2 2 2 2 3 3 3 3 3 2 2 2
8 8 8 8 7 7 7 7 7 7 7 7 7 7 6 6 6 6 5 5 5 5 5 5 5 4 4 4 4 4 4 4 3 3 3 3 3 3 3 3 2 2 2 2 2 2 2 2 2 2 2 2 3 3 3 3 2 2 2 2 2 2 2 2 2 2 2 2 2
8 8 8 7 7 7 7 7 7 7 7 7 7 6 6 6 6 5 5 5 5 5 5 5 4 4 4 4 4 4 3 3 3 3 3 3 3 3 2 2 2 2 2 2 2 2 2 2 2 2 2 3 3 3 2 2 2 2 3 3 2 2 2 2 2 2 2 2 2
8 7 7 7 7 7 7 7 7 7 7 7 6 6 6 6 5 5 5 5 5 5 4 4 4 4 4 4 3 3 3 3 3 3 3 3 2 2 2 2 2 2 2 2 2 2 2 2 2 2 3 3 3 3 2 2 2 2 2 2 2 2 2 2 2 2 2 2 2
7 7 7 7 7 7 7 7 7 7 7 6 6 6 6 5 5 5 5 5 5 4 4 4 4 4 4 3 3 3 3 3 3 3 3 2 2 2 2 2 2 2 2 2 2 2 2 2 2 2 2 2 3 2 2 2 2 2 2 2 2 2 2 2 2 2 2 1 1
7 7 7 7 7 7 7 7 7 6 6 6 6 6 5 5 5 5 5 5 4 4 4 4 4 4 3 3 3 3 3 3 3 2 2 2 2 2 2 2 2 2 2 2 2 2 2 2 2 2 2 2 2 2 2 2 2 2 2 2 2 2 2 2 2 1 1 1 1
7 7 7 7 7 7 7 7 6 6 6 6 6 6 5 5 5 5 5 4 4 4 4 4 4 3 3 3 3 3 3 3 2 2 2 2 2 2 2 2 2 2 2 2 2 2 2 2 2 2 2 2 2 2 2 2 2 2 2 2 2 2 2 1 1 1 1 1 1
7 7 7 7 7 7 6 6 6 6 6 6 6 5 5 5 5 5 4 4 4 4 4 4 3 3 3 3 3 3 2 2 2 2 2 2 2 2 2 2 2 2 2 1 1 2 2 2 2 2 2 2 2 2 2 2 2 2 2 2 2 1 1 1 1 1 1 1 1
7 7 7 7 6 6 6 6 6 6 6 6 5 5 5 5 5 5 4 4 4 4 4 3 3 3 3 3 3 2 2 2 2 2 2 2 2 2 2 2 2 1 1 1 1 2 2 2 2 2 2 2 2 2 2 2 2 2 2 1 1 1 1 1 1 1 1 0 0
7 7 7 6 6 6 6 6 6 6 5 5 5 5 5 5 5 4 4 4 4 4 3 3 3 3 3 3 2 2 2 2 2 2 2 2 2 2 2 1 1 1 1 1 1 2 2 2 2 2 2 2 2 2 2 2 2 1 1 1 1 1 1 1 1 1 1 0 0
7 7 6 6 6 6 6 6 6 5 5 5 5 5 5 4 4 4 4 4 4 3 3 3 3 3 3 2 2 2 2 2 2 2 2 2 2 1 1 1 1 1 1 1 1 1 2 2 2 2 2 2 2 2 2 1 1 1 1 1 1 1 1 1 1 1 0 0 0
6 6 6 6 6 6 6 6 5 5 5 5 5 5 4 4 4 4 4 4 3 3 3 3 3 3 2 2 2 2 2 2 2 2 2 2 1 1 1 1 1 1 1 1 1 1 1 1 1 1 2 2 2 1 1 1 1 1 1 1 1 1 1 1 1 0 0 0 0
6 6 6 6 6 6 6 5 5 5 5 5 5 4 4 4 4 4 4 3 3 3 3 3 3 2 2 2 2 2 2 2 2 1 1 1 1 1 1 1 1 1 1 1 1 1 1 1 1 1 1 1 1 1 1 1 1 1 1 1 1 1 0 0 0 0 0 0 0
6 6 6 6 6 5 5 5 5 5 5 4 4 4 4 4 4 3 3 3 3 3 3 2 2 2 2 2 2 2 2 1 1 1 1 1 1 1 1 1 1 1 1 1 1 1 1 1 1 1 1 1 1 1 1 1 1 1 1 0 0 0 0 0 0 0 0 0 0
6 6 6 6 5 5 5 5 5 5 4 4 4 4 4 3 3 3 3 3 3 2 2 2 2 2 2 2 2 2 1 1 1 1 1 1 1 1 1 1 1 1 1 1 1 1 1 1 1 1 1 1 1 1 1 1 1 0 0 0 0 0 0 -0 -0 -0 -0 -0 -0
6 6 6 5 5 5 5 5 4 4 4 4 4 4 3 3 3 3 3 3 2 2 2 2 2 2 2 2 1 1 1 1 1 1 1 1 1 1 1 1 1 1 1 1 1 1 1 1 1 1 1 1 1 1 1 0 0 0 -0 -0 -0 -0 -0 -0 -0 -0 -0 -0 -0
6 5 5 5 5 5 5 4 4 4 4 4 3 3 3 3 3 3 3 2 2 2 2 2 2 2 1 1 1 1 1 1 1 1 1 1 1 1 0 0 0 0 0 0 0 0 1 1 1 1 1 1 1 0 0 -0 -0 -0 -0 -0 -0 -0 -0 -0 -0 -0 -0 -0 -0
5 5 5 5 5 4 4 4 4 4 4 3 3 3 3 3 3 2 2 2 2 2 2 2 1 1 1 1 1 1 1 1 1 1 1 0 0 0 0 0 0 0 0 0 0 0 0 0 1 1 1 1 0 0 -0 -0 -0 -0 -0 -1 -1 -1 -1 -0 -0 -0 -0 -1 -1
5 5 5 5 4 4 4 4 4 4 3 3 3 3 3 3 2 2 2 2 2 2 2 1 1 1 1 1 1 1 1 1 0 0 0 0 0 0 0 0 0 0 0 0 0 0 0 0 0 0 0 0 0 -0 -0 -0 -0 -1 -1 -1 -1 -1 -1 -1 -1 -1 -1 -1 -1
Height
847 847 847 847 847 846 846 846 846 846 846 846 846 845 845 845 845 844 844 844 844 843 843 842 842 841 841 840 840 839 839 838 838 837 837 836 835 835 834 833 833 832 831 830 829 829 828 827 826 825 824 823 822 821 820 820 819 818 817 816 815 814 813 813 811 810 810 809 809
846 846 846 846 846 846 846 846 846 845 845 845 845 845 844 844 844 844 844 843 843 842 842 841 841 840 840 839 839 838 838 837 836 836 835 835 834 834 833 832 831 830 829 829 828 827 826 825 824 823 822 821 820 819 818 817 817 816 814 814 813 812 811 810 809 808 807 807 806
846 845 845 845 845 845 845 845 845 845 845 844 844 844 844 844 844 843 843 842 842 841 841 840 840 839 839 838 838 837 837 836 835 835 834 834 833 832 831 831 830 829 828 827 826 825 824 823 822 821 820 819 818 817 816 815 814 814 812 811 810 810 809 808 806 805 805 804 803
845 845 845 845 845 845 845 844 844 844 844 844 844 844 843 843 843 842 842 841 841 840 840 839 839 839 838 837 837 836 836 835 834 834 833 832 832 831 830 829 829 828 827 826 825 824 823 822 820 819 818 817 816 815 814 813 812 811 810 809 808 808 806 805 804 804 803 802 801
844 844 844 844 844 844 844 844 844 843 843 843 843 843 842 842 842 841 841 840 840 839 839 839 838 838 837 837 836 835 835 834 834 833 832 831 830 829 829 828 827 826 825 824 823 822 821 820 819 817 816 815 814 813 811 810 810 809 808 807 806 805 804 803 802 802 801 800 799
844 844 844 844 844 843 843 843 843 843 842 842 842 842 841 841 841 840 840 839 839 839 838 838 837 837 836 835 835 834 834 833 832 832 831 830 829 828 827 826 825 824 823 822 821 820 819 818 816 815 814 813 811 810 809 809 808 807 805 804 804 804 803 802 801 800 799 798 797
844 843 843 843 843 843 842 842 842 842 842 841 841 841 840 840 840 839 839 839 838 838 837 837 836 835 835 834 834 833 832 832 831 830 829 828 827 826 825 824 824 822 821 820 819 818 817 816 814 813 812 811 809 808 808 807 806 805 804 802 802 801 801 800 799 798 798 796 795
843 843 842 842 842 842 842 841 841 841 841 840 840 840 840 839 839 839 838 838 837 837 836 836 835 834 834 833 832 832 831 830 829 829 828 827 826 824 824 822 821 820 819 818 817 816 815 814 813 811 810 809 808 806 806 805 804 803 802 801 800 799 799 798 797 797 796 795 794
842 842 842 841 841 841 841 841 841 840 840 840 839 839 839 839 838 838 837 837 836 836 835 834 834 833 833 832 831 830 829 829 828 827 826 825 824 823 821 820 819 818 817 816 815 814 813 812 811 809 808 807 806 805 804 804 803 801 800 799 798 797 797 796 796 795 794 793 792
841 841 841 841 841 840 840 840 840 840 839 839 839 839 838 838 838 837 836 836 835 835 834 834 833 832 831 830 829 829 828 827 826 825 824 823 822 820 819 818 817 816 815 814 813 812 811 810 809 807 806 806 804 803 802 802 801 799 798 797 796 795 794 794 794 793 792 791 790
840 840 840 840 840 840 840 839 839 839 839 839 838 838 837 837 836 836 835 835 834 834 833 832 832 831 830 829 828 827 826 825 824 823 822 820 819 819 818 816 815 814 813 812 811 810 809 808 807 805 804 804 803 802 801 800 799 798 796 795 795 794 793 792 792 791 790 789 788
840 839 839 839 839 839 839 839 839 838 838 838 837 837 836 836 835 835 834 834 833 832 831 831 830 829 828 827 826 825 824 823 822 821 820 819 818 817 816 814 814 813 811 810 810 809 808 806 805 804 802 801 801 800 799 798 797 796 794 793 793 792 791 790 789 789 788 787 786
839 839 839 839 839 838 838 838 838 837 837 837 836 836 835 835 834 834 833 832 831 830 830 829 828 827 826 825 824 823 822 821 820 819 818 817 816 815 814 813 812 811 810 809 808 807 806 804 803 802 800 799 799 798 797 796 795 794 793 791 791 790 789 788 787 787 786 785 784
838 838 838 838 838 838 837 837 837 836 836 835 835 834 834 833 833 832 831 830 829 829 828 827 826 826 825 824 823 821 820 819 819 817 816 815 814 813 812 811 810 809 808 807 806 805 804 803 801 800 799 797 796 795 795 794 793 792 791 790 789 788 787 786 785 784 784 783 781
838 837 837 837 837 837 836 836 836 835 835 834 834 833 833 832 831 830 830 829 828 827 826 825 824 824 823 822 821 820 819 818 817 816 814 813 812 811 810 809 808 807 806 805 804 803 802 801 799 798 797 795 794 793 793 792 791 790 789 788 787 785 784 783 783 782 781 780 779
837 837 836 836 836 836 835 835 834 834 834 833 832 832 831 830 829 829 828 827 826 825 824 824 823 822 821 820 819 819 817 816 815 814 813 812 810 809 809 807 806 805 804 803 802 801 800 799 798 797 795 794 792 791 790 789 789 788 787 785 784 783 782 781 780 779 779 778 777
836 836 835 835 835 834 834 834 833 833 832 831 831 830 829 829 828 827 826 826 825 824 823 822 821 820 819 818 818 817 816 814 814 812 811 810 809 808 807 805 804 803 802 801 800 799 797 796 795 794 793 792 790 789 788 787 786 785 784 783 782 781 780 779 778 777 776 775 774
835 834 834 834 834 833 833 832 832 831 830 830 829 829 828 827 826 825 825 824 823 822 821 820 819 819 818 817 816 815 814 813 812 811 809 809 807 806 805 804 803 802 800 799 798 797 795 794 793 792 791 790 789 787 786 785 784 783 782 781 780 779 778 777 776 775 774 773 772
834 834 833 833 832 832 831 831 830 829 829 828 828 827 826 825 825 824 823 822 822 821 820 819 818 817 816 815 814 813 813 811 810 809 808 807 805 804 803 802 801 800 799 797 796 795 794 792 791 790 789 788 786 785 784 783 782 781 779 779 777 776 775 774 773 772 771 770 769
833 832 832 831 831 830 830 829 829 828 827 827 826 825 824 824 823 822 821 820 820 819 818 817 816 815 814 813 812 811 810 810 809 807 806 805 804 803 801 800 799 798 797 795 794 793 792 790 789 788 787 785 784 783 782 780 779 778 777 776 774 773 772 771 770 769 768 767 766
831 831 831 830 829 829 828 828 827 826 826 825 824 824 823 822 821 821 820 819 818 817 816 815 814 814 812 811 810 809 809 808 807 805 804 803 802 801 800 799 797 796 795 794 792 791 790 789 787 786 784 783 782 781 779 778 777 775 774 773 772 770 769 769 767 766 765 765 764
830 830 829 829 828 828 827 826 825 825 824 824 823 822 821 820 820 819 818 817 817 816 815 814 813 812 811 810 809 808 806 805 805 804 803 801 800 799 798 797 795 794 793 791 790 789 788 786 785 784 783 781 779 778 777 776 774 773 771 770 769 768 767 766 765 764 763 762 761
829 828 828 827 827 826 825 825 824 823 823 822 821 820 819 819 818 817 816 816 815 814 813 812 811 810 809 808 807 806 805 804 802 801 800 799 798 797 796 795 794 792 791 789 788 787 786 784 783 782 780 779 778 776 775 774 772 770 769 768 766 765 764 763 762 761 760 760 759
827 827 826 826 825 824 824 823 822 822 821 820 819 819 818 817 816 815 815 814 813 812 811 810 810 809 808 807 806 804 803 802 800 799 798 797 796 795 794 793 792 790 789 788 786 785 784 783 781 780 779 777 776 774 773 772 770 769 767 765 764 763 762 761 760 759 759 758 757
826 825 825 824 824 823 822 821 821 820 819 819 818 817 816 815 814 814 813 812 811 811 810 809 808 807 806 805 804 803 802 800 799 797 796 795 794 793 792 791 789 788 787 786 785 784 783 782 780 779 777 775 774 772 771 770 769 767 765 764 762 761 759 759 758 757 757 756 755
824 824 823 823 822 821 821 820 819 818 818 817 816 815 814 814 813 812 811 810 810 809 808 807 806 805 804 803 802 801 800 799 797 796 794 793 792 791 790 789 788 786 785 784 783 782 781 780 779 778 776 774 772 770 769 767 766 765 763 762 760 759 758 757 756 755 754 754 754
823 822 822 821 820 820 819 818 818 817 816 815 814 814 813 812 812 811 810 809 808 807 807 806 805 804 803 801 800 799 798 796 795 794 793 791 790 789 788 786 785 784 783 782 781 780 779 778 777 775 774 772 770 769 767 765 763 762 761 759 759 757 756 755 754 753 752 752 751
822 821 820 819 819 818 818 817 816 815 814 814 813 812 812 811 810 809 809 808 807 806 805 804 803 802 801 800 799 797 796 794 793 792 791 790 788 787 786 784 783 782 781 780 779 779 777 776 775 773 772 770 769 767 765 763 761 760 759 758 756 755 754 754 753 751 750 749 749
820 819 819 818 817 817 816 815 814 814 813 813 812 811 810 809 809 808 807 806 805 804 803 802 801 800 799 798 796 795 794 793 791 790 789 788 786 785 784 783 781 780 779 779 778 777 775 774 773 771 770 769 767 765 763 761 760 758 757 755 754 754 753 752 751 750 749 748 747
819 818 817 816 816 815 814 814 813 813 812 811 810 810 809 808 807 806 806 805 804 803 802 801 799 798 797 796 794 793 792 791 789 789 787 786 784 783 782 781 779 778 777 776 775 774 773 772 770 769 768 766 765 763 761 759 758 756 755 754 753 752 751 750 749 748 747 746 745
817 817 816 815 814 814 813 813 812 811 811 810 809 809 808 807 806 805 804 803 802 801 800 799 798 796 795 794 793 791 790 789 788 787 785 784 783 781 780 779 777 776 775 774 774 772 771 769 768 767 765 764 763 761 759 758 756 754 753 751 750 749 749 748 747 746 745 744 743
816 815 814 814 813 812 812 811 811 810 809 809 808 807 806 805 805 804 803 802 801 799 798 797 796 794 793 792 791 789 788 787 786 784 784 783 781 779 778 776 775 774 773 773 772 770 769 768 766 764 763 762 760 759 757 755 754 752 751 749 749 748 747 746 744 744 743 742 741
814 814 813 813 812 811 811 810 810 809 808 808 807 806 805 804 803 802 801 800 799 798 797 795 794 793 791 790 789 787 786 785 784 783 782 781 779 778 776 774 773 772 771 771 770 768 767 765 764 763 761 759 758 756 754 753 752 750 749 747 746 745 744 744 743 742 741 740 739
813 813 812 811 811 810 809 809 809 808 807 806 805 804 804 803 801 800 799 799 798 797 795 794 793 792 790 789 788 786 784 783 782 781 780 779 777 776 774 773 771 770 770 769 768 766 765 764 762 760 759 757 756 754 752 751 749 748 746 745 744 743 743 742 741 739 739 737 736
812 811 811 810 809 809 808 808 807 806 805 805 804 803 802 801 800 799 798 797 796 795 794 792 791 790 789 787 786 785 783 782 780 779 778 777 775 774 772 770 769 768 768 767 766 764 763 761 760 759 757 755 754 752 750 749 747 745 744 743 742 741 740 739 739 737 736 735 734
811 810 810 809 808 808 807 806 806 805 804 803 802 801 800 799 799 798 797 795 794 793 792 790 789 788 787 785 784 783 782 780 779 777 776 775 774 772 770 768 767 766 765 765 764 762 761 759 758 757 755 754 752 750 748 747 745 744 742 741 740 739 738 737 736 734 733 732 731
810 809 809 808 807 806 806 805 804 803 803 802 801 800 799 798 797 796 795 794 793 791 790 789 788 786 785 784 782 781 780 779 777 776 774 773 772 770 768 766 765 764 763 762 761 760 759 758 756 755 753 752 750 748 746 745 743 742 740 739 738 737 736 735 733 732 730 729 728
809 808 807 807 806 805 804 804 803 802 801 800 799 798 797 796 795 794 794 793 792 790 788 787 786 785 783 782 781 779 778 777 776 774 773 771 770 769 767 764 763 761 761 760 759 758 757 756 754 753 752 750 748 747 745 743 742 740 739 737 736 734 734 732 731 729 728 727 726
808 807 806 805 804 804 803 802 801 800 799 799 798 797 796 795 794 793 792 791 790 789 787 786 784 783 782 780 779 777 776 774 774 773 771 770 769 767 766 764 761 759 759 758 757 756 755 754 753 751 750 749 747 745 744 742 740 738 737 735 734 732 731 730 729 727 725 724 724
806 805 805 804 803 802 801 801 800 799 798 797 796 795 794 794 793 791 791 790 789 788 786 784 783 781 780 779 777 775 774 772 771 770 769 768 767 765 764 762 759 758 757 756 755 754 753 752 751 749 748 747 746 744 742 740 739 737 735 734 732 730 729 727 726 724 723 722 722
805 804 803 803 802 801 800 799 798 798 797 796 795 794 793 792 791 790 789 788 787 786 785 783 781 780 779 777 776 774 772 770 769 768 767 766 764 763 762 760 758 756 755 754 753 752 751 750 749 748 747 746 744 743 741 739 737 735 733 732 730 729 727 724 723 722 721 720 720
Wind_Speed
5 4 5 5 6 6 7 8 9 9 10 10 10 11 12 12 13 14 14 15 15 16 16 16 16 17 17 17 18 18 19 19 20 20 20 21 22 22 23 24 24 25 25 26 26 27 27 28 28 28 28 28 28 28 28 28 28 29 29 29 29 30 31 31 32 33 34 34 34
5 5 6 6 7 7 7 8 9 9 10 10 11 11 12 13 13 14 15 15 15 16 16 16 17 17 18 18 19 19 20 20 21 21 22 22 23 23 24 24 25 25 26 26 27 27 28 28 29 29 29 29 29 29 29 29 29 29 30 30 30 30 30 30 31 32 33 33 34
6 7 7 7 7 7 8 8 8 9 9 10 10 11 12 13 13 14 15 15 15 16 16 17 17 18 19 19 20 20 21 22 22 23 23 23 24 24 25 25 26 26 27 27 28 28 29 29 29 30 30 29 29 30 30 30 30 30 30 30 30 29 29 29 29 30 30 31 32
7 7 7 7 7 7 7 7 8 8 8 9 10 11 11 12 13 14 15 15 15 16 16 17 18 19 20 20 21 22 22 23 23 23 24 24 25 25 26 27 27 28 28 28 29 29 29 30 30 30 30 30 30 30 31 31 31 30 30 31 30 29 29 29 29 29 29 30 30
7 7 7 7 7 6 6 6 7 8 8 9 10 11 12 13 13 14 15 15 16 16 17 17 18 19 20 21 22 22 23 23 23 24 24 25 25 26 27 28 28 29 29 29 30 30 30 31 31 31 31 31 31 31 31 31 31 31 31 31 30 30 29 29 29 29 29 29 30
6 6 6 6 5 5 6 6 7 8 9 10 11 12 13 14 15 15 16 16 16 16 17 18 19 20 20 21 22 22 22 23 23 24 24 25 26 27 28 28 29 29 30 30 31 31 31 32 32 32 32 32 32 32 32 32 31 32 32 31 31 30 30 30 30 30 30 30 30
5 5 4 4 5 5 6 7 8 9 10 11 12 13 14 15 16 16 16 17 17 17 18 18 19 20 21 21 22 22 23 23 24 24 25 26 27 28 28 29 29 30 30 31 31 32 32 32 33 33 33 32 32 32 32 32 32 32 32 32 32 31 30 30 31 30 30 30 31
3 3 3 4 5 6 7 8 9 10 11 12 14 14 15 16 17 17 17 18 18 18 19 19 20 21 21 22 23 23 24 24 25 25 26 27 28 28 29 29 30 30 31 31 32 32 33 33 33 33 33 32 32 32 32 32 32 33 33 33 33 32 31 31 31 31 31 31 32
3 3 4 5 6 7 8 9 10 11 12 13 14 15 16 16 17 18 18 18 19 19 20 20 21 21 22 23 23 23 24 25 25 26 26 27 28 29 29 30 31 31 32 32 32 33 33 33 33 33 33 32 32 33 33 34 33 34 34 34 33 32 32 32 31 31 31 31 32
3 4 5 6 7 8 9 10 11 12 13 14 15 15 16 16 17 17 18 18 19 20 20 21 21 22 22 23 23 23 24 25 25 26 27 28 28 29 30 31 31 32 33 33 33 33 34 33 33 33 33 33 33 34 34 34 34 34 34 33 32 32 32 32 32 32 32 32 32
4 5 6 6 7 8 10 11 12 12 13 14 15 15 16 16 17 17 18 19 20 20 21 21 21 22 22 23 23 24 24 25 26 27 28 29 29 30 31 31 32 33 33 33 33 33 33 33 33 33 34 34 34 34 34 34 34 34 34 33 33 33 33 33 33 33 32 32 33
5 5 6 7 8 9 10 11 12 13 13 14 15 16 16 17 17 18 19 19 20 20 20 20 21 22 23 23 24 25 26 26 27 28 29 30 30 31 31 32 32 33 33 34 33 33 33 33 33 34 34 35 34 34 34 34 34 34 34 34 34 33 33 34 34 34 33 33 33
5 6 7 8 9 10 11 12 12 13 14 15 16 16 17 17 17 18 18 19 19 20 20 21 22 22 23 25 25 26 27 28 28 29 30 30 31 31 32 32 33 33 33 33 33 33 33 33 34 34 35 36 35 35 35 35 35 34 34 34 34 34 34 35 35 35 35 34 34
6 7 8 9 10 11 12 12 13 14 15 15 16 16 17 17 17 17 18 19 20 20 21 22 23 24 24 25 26 27 28 28 29 29 30 31 31 31 32 32 33 33 33 33 33 33 33 34 34 35 36 36 36 36 36 35 35 34 34 34 34 34 35 36 36 36 36 36 35
7 8 9 10 10 11 12 13 14 14 15 15 16 16 16 17 17 17 18 19 20 21 22 23 24 25 25 26 26 27 28 28 29 30 30 31 31 31 31 32 32 33 33 34 34 34 34 35 35 36 36 37 37 37 37 36 36 35 35 35 36 36 36 37 37 37 36 36 35
8 9 9 10 11 12 12 13 14 14 15 15 16 16 16 17 18 19 19 21 22 23 23 24 25 26 26 26 27 27 28 29 29 29 30 30 31 31 32 32 32 33 34 34 35 35 35 35 35 36 36 36 37 37 37 37 37 37 37 37 37 37 37 37 37 36 35 35 34
9 10 10 11 11 12 13 13 14 14 15 16 16 17 17 18 19 20 21 21 22 23 24 25 25 26 27 27 27 27 28 29 29 29 30 30 31 31 32 32 33 34 34 35 35 36 36 36 36 36 36 36 36 37 37 37 37 37 37 37 37 37 37 37 37 36 35 34 34
10 10 11 11 12 12 13 14 14 15 16 16 17 18 18 19 20 21 22 22 23 23 24 25 26 26 26 27 28 28 28 28 29 29 30 30 31 31 32 33 33 34 34 34 35 35 36 36 36 36 36 36 36 36 37 37 37 38 38 37 37 38 38 37 37 36 35 35 34
10 10 11 11 12 13 13 14 15 16 17 18 18 19 19 20 21 21 22 23 23 24 24 25 26 26 27 27 28 28 28 29 29 30 30 31 31 32 32 33 33 33 33 34 34 35 35 36 36 36 36 36 37 37 38 38 38 38 38 38 38 38 38 38 37 37 36 36 36
10 11 11 12 13 14 15 16 16 17 18 18 19 19 20 21 21 22 23 23 24 24 25 25 26 27 27 28 28 29 29 29 29 30 31 31 31 32 32 33 33 33 33 33 34 35 35 36 36 36 37 37 38 38 38 38 38 38 38 38 37 37 37 37 37 36 36 36 36
10 11 11 12 14 15 16 17 17 18 19 19 20 20 21 22 22 23 23 24 24 25 25 26 26 27 28 28 29 30 30 30 30 30 31 31 31 32 32 32 32 32 33 33 34 35 35 36 37 37 37 37 37 37 37 37 37 37 37 37 36 36 36 36 36 36 36 35 35
11 11 12 14 15 16 17 18 18 19 19 20 20 21 22 22 23 23 24 24 25 25 26 26 27 27 28 29 29 30 31 31 30 30 31 31 31 31 32 32 32 32 33 34 34 35 36 36 36 36 36 36 36 36 36 36 36 36 36 35 35 35 35 35 35 35 34 34 34
11 12 14 15 16 17 17 18 19 19 20 21 21 22 22 23 24 24 25 25 25 26 26 27 27 28 28 29 30 30 31 31 31 31 31 31 31 32 32 32 32 33 33 34 34 35 35 35 35 35 34 34 35 35 35 35 35 34 34 34 34 34 34 34 34 33 32 32 31
13 14 15 16 17 17 18 19 19 20 21 22 22 23 23 24 24 25 25 25 26 26 27 27 28 28 29 30 30 30 30 31 31 31 32 32 32 32 32 32 32 32 32 33 34 34 33 32 33 33 33 34 34 35 35 34 33 32 32 32 33 33 33 32 32 31 30 29 29
14 15 16 16 17 18 19 19 20 21 22 23 23 24 24 24 25 25 25 26 26 26 27 27 28 29 29 30 30 29 30 30 31 31 32 32 33 32 32 32 32 31 32 33 33 33 31 30 31 32 33 34 35 34 33 32 32 31 32 32 32 32 32 31 30 29 28 28 28
15 16 16 17 18 19 19 20 21 22 23 23 24 24 25 25 25 25 26 26 26 27 27 28 29 29 29 29 29 29 30 30 31 31 32 32 33 33 32 32 31 32 32 33 33 32 31 31 31 32 33 34 35 34 33 32 32 31 32 32 31 30 30 30 29 29 28 27 26
16 16 17 18 18 19 20 21 22 22 23 24 24 25 25 25 25 25 26 26 27 27 28 28 29 29 29 29 29 30 30 31 31 32 32 32 32 32 32 32 32 33 33 33 32 31 31 32 32 32 32 33 34 33 32 32 32 32 31 31 30 29 28 28 28 28 27 27 26
16 17 18 18 19 20 20 21 22 23 24 24 25 25 25 25 25 26 26 26 27 28 28 29 29 29 29 29 30 31 31 32 32 32 32 32 32 32 32 32 32 33 33 32 31 31 31 32 32 32 32 32 32 32 32 31 31 31 30 30 29 29 29 28 28 28 28 28 28
17 17 18 18 19 20 21 22 22 23 24 24 25 25 25 25 25 26 26 27 27 28 29 29 30 30 30 30 31 32 32 32 32 32 32 32 32 32 32 32 32 33 32 32 31 31 31 32 32 32 32 32 31 31 31 31 31 30 30 30 29 29 29 29 28 29 29 29 29
17 17 18 19 20 20 21 22 23 23 24 24 25 25 25 25 26 26 26 27 28 29 29 30 30 31 31 31 32 32 32 32 32 31 31 31 31 32 32 32 32 33 33 32 31 31 31 31 32 32 32 32 32 32 31 31 31 30 30 30 30 30 29 29 30 30 30 29 29
16 17 18 19 20 21 22 22 23 23 24 24 24 24 25 25 25 26 27 28 29 30 30 30 31 31 31 32 32 32 32 32 32 32 31 31 31 32 32 33 33 33 32 31 30 30 31 32 32 33 33 33 32 32 32 31 31 30 30 30 30 30 30 30 30 29 29 29 29
16 17 18 19 20 21 22 22 23 23 23 24 24 24 25 25 26 27 28 29 30 30 30 30 31 31 32 32 32 32 32 32 32 32 31 31 31 32 33 33 33 33 32 30 30 31 32 33 33 33 33 33 33 33 32 32 31 31 30 30 30 30 30 29 29 28 29 29 29
16 17 18 19 20 21 22 22 22 23 23 24 24 25 25 26 28 28 29 29 29 29 29 30 30 31 31 32 32 32 32 32 32 31 31 31 32 32 33 33 32 32 31 30 31 32 33 33 33 33 33 33 33 33 32 32 31 31 30 30 29 29 28 28 28 28 29 30 31
17 18 19 19 20 21 22 22 23 23 24 25 25 26 27 27 28 29 30 30 29 29 29 29 30 30 31 31 31 32 32 32 32 32 32 32 32 32 33 33 32 32 31 31 32 33 33 33 33 33 33 33 33 32 32 31 31 30 29 28 28 27 27 27 28 30 31 32 33
17 18 19 20 21 22 22 23 24 24 25 26 26 27 28 28 28 29 29 29 29 29 29 29 30 30 30 31 31 31 31 32 32 32 32 32 32 32 33 33 34 34 33 32 32 33 33 33 33 33 33 33 32 31 30 30 29 28 27 27 27 27 28 29 30 31 32 33 33
18 18 20 21 22 23 23 24 25 25 26 26 27 28 28 28 29 29 29 29 29 29 29 29 30 30 30 31 31 31 31 32 32 32 32 32 32 32 33 34 35 35 34 33 32 32 32 33 33 33 32 31 30 29 28 28 27 26 26 27 28 28 30 31 32 32 33 34 34
18 19 20 21 23 23 24 25 25 26 26 27 27 27 28 28 29 29 28 28 28 28 28 29 30 30 31 31 32 32 32 32 32 32 32 32 32 33 34 35 35 35 34 33 32 32 32 32 32 32 31 30 28 27 27 26 26 26 27 28 29 30 31 31 31 32 33 34 34
19 20 21 22 23 24 25 25 25 26 26 27 27 27 28 28 28 28 28 27 27 27 28 29 30 31 31 32 32 32 33 32 32 32 32 32 32 33 33 34 35 35 34 33 32 32 31 31 31 30 29 28 27 26 26 26 26 27 28 29 29 30 30 31 31 32 33 33 31
20 21 22 23 24 24 25 25 25 26 26 27 27 28 28 28 28 27 27 26 26 27 28 29 30 31 32 32 32 32 33 33 33 32 32 32 33 32 33 33 34 34 34 33 32 31 30 29 29 28 27 26 26 26 26 26 27 28 28 28 28 29 30 31 32 32 32 30 26
21 22 22 23 24 24 25 25 25 26 26 26 27 27 27 27 27 27 27 27 27 28 29 30 31 31 32 32 32 33 33 34 34 33 33 33 33 32 32 32 33 33 33 33 31 30 28 27 27 27 27 27 27 27 27 27 28 28 27 27 28 29 30 32 32 31 28 25 22
22 23 23 24 24 24 25 25 25 26 26 26 26 27 27 27 27 27 27 28 28 29 29 30 31 32 32 32 32 32 33 34 34 34 33 33 32 31 31 31 32 32 32 31 30 28 27 26 26 26 27 27 28 28 27 27 26 26 26 27 29 29 30 31 30 27 23 20 20
Wind_Direction
249 249 252 258 266 274 282 289 295 300 305 309 312 313 314 314 314 315 317 318 317 318 318 318 319 321 321 322 321 320 319 318 317 316 314 312 311 311 311 311 312 312 312 312 312 312 311 311 310 308 306 305 303 301 300 299 297 296 294 291 288 286 284 282 280 279 278 277 275
236 235 238 245 254 265 275 285 291 296 301 305 308 309 310 311 312 314 316 317 317 317 317 318 320 320 320 319 319 317 316 314 313 312 310 309 309 309 309 310 310 311 311 311 311 311 311 311 309 307 305 304 302 300 299 299 298 295 293 291 289 288 285 283 280 279 278 277 276
232 235 241 248 258 269 278 287 293 298 302 305 307 308 309 311 312 315 316 317 317 317 317 317 318 317 316 315 314 313 311 310 309 308 307 307 307 307 307 308 308 308 309 309 309 309 309 309 308 305 303 302 300 299 298 298 298 295 292 291 289 288 285 282 281 279 278 276 275
235 241 250 259 270 280 290 298 304 309 311 312 312 312 313 315 317 318 318 318 318 317 317 316 315 314 313 311 310 309 308 307 306 305 304 304 304 304 305 305 305 305 306 307 307 307 307 307 305 303 301 299 298 297 296 297 297 295 292 291 289 287 285 283 281 280 278 276 275
242 250 259 271 282 294 304 312 316 319 320 319 318 319 320 322 322 322 321 320 319 318 317 315 313 311 310 309 308 307 307 306 305 304 303 303 302 302 302 303 303 303 304 304 305 305 305 305 303 301 299 297 296 295 295 295 295 293 292 291 289 287 285 284 282 281 280 278 276
254 262 271 282 294 307 315 320 322 322 321 321 321 322 323 324 324 323 322 321 320 319 317 314 312 311 310 309 308 307 306 305 304 303 302 302 301 301 301 301 301 302 302 303 303 303 303 302 300 299 297 296 295 294 295 295 294 293 292 291 289 288 287 285 284 284 282 281 279
268 275 284 296 309 318 322 323 323 322 321 321 320 320 321 322 322 322 321 320 319 317 315 313 311 310 309 308 307 306 305 304 303 302 301 300 300 300 300 300 301 301 301 302 302 302 302 301 299 297 296 295 294 294 294 294 294 293 292 291 290 290 289 287 287 286 285 283 282
280 291 305 316 322 325 325 324 322 321 319 318 317 317 318 318 318 318 317 317 316 314 312 310 309 308 307 306 305 304 303 302 301 301 300 300 300 300 300 301 301 301 302 302 302 301 301 300 297 296 295 295 294 294 294 295 294 293 292 291 292 291 290 289 289 288 287 286 285
296 311 321 324 326 325 323 320 318 316 314 312 312 312 312 312 313 313 312 311 310 309 307 306 305 305 304 304 303 303 303 302 302 302 301 301 301 301 301 302 302 302 302 302 302 301 300 299 297 295 295 294 294 294 295 295 294 293 293 292 292 292 292 291 291 290 289 288 287
313 321 323 323 321 319 316 312 310 308 306 306 305 306 306 306 307 307 307 306 305 304 304 304 305 305 305 305 305 305 305 305 304 304 303 303 303 302 302 302 302 302 302 302 302 301 300 298 297 296 295 295 295 295 295 295 295 294 294 293 293 293 293 293 293 292 291 290 288
320 320 318 315 312 308 306 303 301 300 300 299 299 300 301 301 302 303 302 302 303 303 305 307 308 308 309 309 309 309 309 308 307 306 305 304 304 304 303 303 303 302 302 302 302 301 300 298 297 297 296 296 296 296 296 296 296 295 294 294 294 294 294 294 294 294 293 292 291
315 312 308 304 300 298 296 295 295 295 295 295 296 297 298 299 301 302 302 303 304 307 310 312 313 313 313 313 313 312 312 310 309 308 306 306 305 305 304 304 303 303 303 303 302 302 300 299 298 297 297 298 297 297 297 297 297 296 295 295 295 295 295 295 295 295 294 293 292
307 303 299 295 293 291 290 291 291 292 293 294 296 297 299 301 303 305 306 308 310 313 316 318 317 316 315 315 314 313 312 311 310 309 307 307 306 306 305 305 304 304 303 303 303 302 301 300 299 298 298 298 298 298 298 298 297 296 296 296 296 295 294 295 295 295 294 294 292
299 296 293 290 289 288 288 289 291 292 294 296 299 301 304 307 310 312 314 315 317 318 319 320 319 318 317 316 315 314 313 312 311 309 308 307 307 306 306 305 305 305 304 304 303 302 301 300 300 299 299 299 299 299 299 298 297 296 296 295 295 295 294 295 295 295 295 294 293
294 291 289 287 287 287 289 291 293 295 298 301 304 307 311 314 317 319 320 320 320 321 320 320 319 319 319 317 316 315 314 312 311 310 308 308 307 307 306 306 306 305 304 304 304 303 302 301 301 300 300 299 299 299 299 298 298 297 296 295 295 295 295 295 296 295 295 294 293
290 288 288 287 288 289 291 294 297 300 303 307 311 314 318 320 323 323 323 323 322 322 321 320 319 319 319 318 317 315 314 312 311 310 309 308 308 308 307 306 306 305 305 305 304 303 303 302 301 301 300 299 299 299 299 299 298 298 297 297 296 296 296 296 296 296 295 294 292
288 288 288 289 291 293 296 299 303 306 310 314 317 320 322 323 324 325 324 324 323 322 322 321 320 319 318 317 317 316 314 312 311 310 309 308 308 308 307 307 306 306 306 305 305 304 304 303 302 301 301 300 299 299 299 299 299 299 299 298 298 298 298 298 297 296 294 293 291
289 290 292 293 296 299 303 307 310 313 316 319 321 322 323 324 324 325 325 325 324 323 322 321 321 319 318 317 317 316 314 312 311 309 309 308 308 307 307 307 307 307 306 306 305 305 304 304 303 303 302 301 300 300 300 300 300 300 300 300 299 299 299 298 298 296 295 293 292
292 294 296 299 303 307 311 315 317 319 320 321 322 323 324 324 325 325 325 325 325 324 322 321 320 319 318 317 316 315 314 312 310 309 309 308 308 308 307 308 308 307 307 306 306 305 305 304 304 303 303 302 302 302 302 302 301 301 301 301 300 300 299 298 298 297 296 295 294
296 298 301 306 310 314 317 319 320 321 322 323 323 323 324 325 325 325 325 325 326 325 323 321 320 319 318 317 316 315 314 312 311 309 309 309 308 308 308 308 308 308 307 306 306 305 305 304 304 304 304 304 303 303 303 303 302 302 301 301 300 299 298 298 298 297 297 296 295
301 304 308 313 316 318 320 321 322 322 322 323 323 324 324 325 325 325 325 325 325 325 323 321 320 319 318 317 316 315 313 312 311 309 309 308 308 308 308 308 307 307 306 306 305 305 305 305 305 305 305 305 304 304 304 303 303 302 301 300 299 299 298 298 298 297 297 296 295
308 311 315 317 319 321 322 323 322 322 322 322 323 324 324 325 325 325 325 325 324 323 322 321 319 318 317 316 315 314 313 312 310 309 308 308 308 307 307 307 307 306 306 305 305 305 305 305 306 306 306 305 305 305 304 303 303 302 301 300 299 299 298 298 298 297 297 297 296
315 317 319 321 322 322 322 322 322 322 322 323 324 324 324 324 324 325 324 324 323 322 320 319 318 317 316 315 314 313 312 311 310 309 308 307 307 307 307 307 306 305 305 305 305 305 306 306 307 307 306 306 305 305 304 304 303 302 301 300 299 299 298 298 298 298 298 298 298
319 320 322 323 323 322 322 322 322 322 323 324 324 324 324 324 324 323 323 321 321 320 319 317 316 316 315 314 313 312 310 309 309 308 307 307 307 306 306 306 305 304 304 304 305 305 306 306 306 306 306 306 305 305 305 304 303 302 301 299 299 298 298 298 298 299 299 299 300
321 322 323 323 322 322 322 322 323 323 324 324 324 324 323 323 322 321 320 319 318 317 316 316 315 315 314 313 312 311 309 308 307 307 307 306 306 306 306 305 304 304 304 304 305 305 305 306 306 306 306 306 306 306 305 304 302 301 300 299 298 298 298 299 299 299 300 300 301
322 323 323 323 323 323 323 323 324 324 324 324 324 323 322 321 320 318 317 315 315 315 314 314 313 313 313 312 311 310 309 308 307 306 306 305 306 306 305 304 304 303 304 304 305 305 305 305 306 306 306 307 307 306 305 303 302 301 300 300 299 299 299 300 300 301 301 301 301
323 324 324 325 324 324 324 324 324 324 323 323 322 321 320 319 317 315 314 313 312 312 312 312 313 313 312 311 310 309 308 308 307 306 305 305 305 304 304 304 303 303 304 305 305 305 305 306 307 307 307 307 306 306 304 303 303 302 301 301 301 300 300 301 301 302 302 302 302
325 325 325 325 324 324 324 324 324 323 322 322 320 319 317 316 314 313 311 311 311 311 312 312 313 313 312 311 310 309 308 307 307 306 306 305 304 304 303 303 303 303 304 305 305 305 306 307 307 307 307 307 307 306 305 304 303 303 302 302 301 301 301 301 301 302 302 302 302
326 326 325 324 323 323 323 323 322 322 321 320 318 317 315 313 312 311 310 310 310 311 312 312 313 312 311 310 309 309 308 307 307 306 306 305 304 304 303 303 303 303 304 305 306 306 307 307 308 308 308 308 307 306 305 304 303 303 302 301 301 301 301 301 301 301 301 300 300
327 326 324 323 322 322 322 322 321 321 320 318 317 315 313 312 311 310 310 310 311 312 312 312 312 312 311 310 309 309 308 307 307 306 306 305 304 304 304 304 304 304 305 306 306 307 307 308 308 308 308 308 308 306 305 304 303 302 301 301 300 300 300 300 300 299 299 298 298
326 325 323 321 321 320 320 321 320 320 319 317 316 314 313 312 311 311 311 311 312 312 312 313 312 311 310 310 309 309 308 308 307 307 306 306 305 305 305 305 305 305 306 307 307 307 308 309 309 309 309 309 308 307 305 304 303 302 301 300 300 299 299 298 298 297 297 297 296
325 324 322 320 319 319 320 320 320 320 319 318 317 315 314 313 312 312 312 312 312 313 313 313 312 311 310 310 309 309 308 308 307 307 307 306 306 306 306 306 306 306 307 308 308 308 309 309 309 309 309 309 308 307 305 304 302 301 300 299 298 298 298 297 297 296 297 296 296
324 322 321 320 319 319 320 321 321 320 319 318 317 316 315 314 313 313 313 313 313 313 312 312 311 310 310 309 309 309 308 308 307 307 307 307 307 306 306 306 306 307 307 308 308 309 309 310 310 309 309 309 308 307 305 304 302 301 299 298 297 297 298 297 297 297 297 297 296
323 321 320 319 319 320 320 320 320 320 319 318 317 316 315 314 314 314 313 313 313 312 311 311 310 309 309 308 308 308 308 308 308 308 308 308 308 308 307 306 306 307 307 308 309 309 309 310 310 310 309 309 308 306 305 303 302 300 299 298 299 299 299 299 299 299 298 297 295
321 320 319 319 319 319 319 319 319 318 317 316 315 315 314 314 314 313 313 313 313 312 311 310 310 309 309 308 308 308 308 308 308 308 308 309 309 308 307 306 306 307 308 308 309 309 309 310 310 310 310 309 308 306 304 303 302 301 301 301 301 301 301 301 300 299 297 296 294
319 318 318 318 317 317 317 317 317 316 316 315 315 315 314 314 313 313 313 313 313 312 311 310 310 310 309 309 309 309 308 308 308 308 309 309 309 308 307 307 307 307 308 308 309 309 309 310 310 310 310 309 307 306 305 304 304 303 303 303 303 302 301 300 299 297 296 296 295
317 316 316 315 315 315 316 316 316 316 315 315 315 314 314 314 313 313 313 313 313 312 311 311 310 310 310 309 309 309 309 308 308 308 308 309 309 308 307 307 307 307 308 308 308 309 309 310 310 310 310 309 308 307 307 306 306 305 305 304 302 301 301 300 298 297 296 296 295
313 313 314 314 314 314 315 315 315 315 315 314 314 314 314 313 313 313 313 313 312 311 310 310 310 310 310 310 309 309 308 308 308 308 308 308 308 307 307 306 306 307 307 308 308 308 309 309 309 309 309 309 309 309 309 308 307 305 304 302 301 300 300 299 298 297 296 295 293
311 311 312 313 313 314 314 314 314 314 314 314 313 313 313 313 313 312 312 312 311 310 310 310 309 309 309 310 309 309 308 308 308 308 307 307 307 307 307 306 306 306 307 307 308 308 308 309 309 309 310 310 310 310 310 308 306 304 302 301 300 301 301 300 299 297 295 292 290
309 310 311 312 313 313 313 313 313 313 313 313 313 313 313 312 312 312 312 311 311 310 310 309 309 309 309 309 309 308 308 308 308 308 307 307 307 307 306 306 305 305 306 308 309 309 309 309 309 310 311 311 311 310 309 307 305 303 302 302 302 302 301 300 298 295 291 288 290
309 310 311 311 312 312 312 312 312 312 312 312 312 312 311 311 311 311 311 311 311 310 310 309 309 309 309 309 309 308 308 307 307 308 308 308 308 307 307 306 306 306 307 309 310 310 310 310 310 311 311 311 311 310 308 307 305 303 303 303 303 302 300 298 295 291 288 290 296